User: anonymous   Login
Location: Unspecified
(0.0000°N, 0.0000°E)
Time: 00:38:06
(UTC+00:00)
Language:

CHUBUSAT 3 - Orbit

View from above orbital plane
View from above orbital plane
View from above satellite
View from above satellite

Ground track
Ground track

The orbit data is extracted from the following two-line orbital elements,

1 41339U 16012C   17206.41164735 +.00000294 +00000-0 +16274-4 0  9996
2 41339 031.0101 228.5774 0013616 084.1812 276.0375 14.99966151078718
Epoch (UTC): 25 July 2017 09:52:46
Eccentricity: 0.0013616
inclination: 31.0101°
perigee height: 557 km
apogee height: 576 km
right ascension of ascending node: 228.5774°
argument of perigee: 84.1812°
revolutions per day: 14.99966151
mean anomaly at epoch: 276.0375°
orbit number at epoch: 7871

The dashed part of the orbit path shows where the satellite is in the earth's shadow,  

DLR